This demonstration page uses our WeatherBlox Daily Observations layout. Learn more.

39.01783, -85.05884

Hourly Observations for January 1, 2019

Temp ( °F °C ) Dew Point ( °F °C ) Humidity (%) Winds ( mph kmh ) Pressure ( in mb ) Visibility ( mi km ) Precip ( " mm )
12:52 am 00:52 Cloudy 50 10 40 4.4 68 68 W 22 35 29.88 1012 10 16.09344 0 0
1:52 am 01:52 Cloudy 49 9.4 40 4.4 71 71 W 16 26 29.91 1013 10 16.09344 0 0
2:52 am 02:52 Cloudy 47 8.3 40 4.4 77 77 W 9 15 29.94 1014 10 16.09344 0 0
3:52 am 03:52 Cloudy 46 7.8 38 3.3 73 73 WNW 16 26 30 1016 10 16.09344 0 0
4:52 am 04:52 Cloudy 44 6.7 38 3.3 79 79 NW 10 17 30.03 1017 10 16.09344 0 0
5:52 am 05:52 Cloudy 44 6.7 38 3.3 79 79 NW 14 22 30.06 1018 10 16.09344 0 0
6:52 am 06:52 Cloudy 43 6.1 38 3.3 82 82 WNW 9 15 30.09 1019 10 16.09344 0 0
7:52 am 07:52 Cloudy 43 6.1 36 2.2 76 76 NW 8 13 30.15 1021 10 16.09344 0 0
8:52 am 08:52 Cloudy 43 6.1 36 2.2 76 76 NW 8 13 30.15 1021 10 16.09344 0 0
9:52 am 09:52 Cloudy 43 6.1 36 2.2 76 76 NW 9 15 30.18 1022 10 16.09344 0 0
10:52 am 10:52 Cloudy 43 6.1 36 2.2 76 76 W 6 9 30.21 1023 10 16.09344 0 0
11:52 am 11:52 Cloudy 43 6.1 36 2.2 76 76 WNW 7 11 30.21 1023 10 16.09344 0 0
12:52 pm 12:52 Cloudy 43 6.1 36 2.2 76 76 WNW 7 11 30.18 1022 10 16.09344 0 0
1:52 pm 13:52 Cloudy 43 6.1 36 2.2 76 76 W 7 11 30.18 1022 10 16.09344 0 0
2:52 pm 14:52 Cloudy 42 5.6 36 2.2 79 79 W 7 11 30.18 1022 10 16.09344 0 0
3:52 pm 15:52 Cloudy 42 5.6 37 2.8 82 82 NW 6 9 30.21 1023 10 16.09344 0 0
4:52 pm 16:52 Cloudy 41 5 37 2.8 86 86 N 3 6 30.21 1023 10 16.09344 0 0
5:52 pm 17:52 Cloudy 41 5 37 2.8 86 86 W 3 6 30.24 1024 10 16.09344 0 0
6:52 pm 18:52 Cloudy 41 5 36 2.2 82 82 Calm 30.24 1024 10 16.09344 0 0
7:52 pm 19:52 Cloudy 41 5 36 2.2 82 82 WSW 3 6 30.24 1024 10 16.09344 0 0
8:52 pm 20:52 Cloudy 41 5 36 2.2 82 82 W 5 7 30.24 1024 10 16.09344 0 0
9:52 pm 21:52 Cloudy 41 5 36 2.2 82 82 W 3 6 30.24 1024 10 16.09344 0 0
10:52 pm 22:52 Cloudy 41 5 36 2.2 82 82 WNW 6 9 30.24 1024 10 16.09344 0 0
11:52 pm 23:52 Cloudy 40 4.4 35 1.7 83 83 NNW 7 11 30.24 1024 10 16.09344 0 0

Powered by AerisWeather